Temp
21 21 20 19 19 19 19 19 19 19 19 18 18 18 18 18 18 17 17 17 17 17 17 17 17 17 17 18 17 17 17 17 17 18 18 18 18 17 16 16 17 18 17
22 20 20 20 19 19 19 19 19 19 19 18 18 18 18 18 18 18 17 17 17 17 17 17 17 17 17 17 17 17 16 17 17 18 19 18 18 18 17 16 17 17 17
21 20 20 20 19 19 18 19 19 19 18 18 18 18 18 18 18 18 17 17 17 17 16 16 16 16 16 16 16 17 17 17 18 19 19 18 17 18 18 16 17 17 17
22 21 20 20 20 19 18 18 18 18 18 18 18 18 18 18 18 18 17 17 17 16 16 16 16 16 17 17 17 17 17 17 18 19 19 19 18 18 17 17 16 17 18
23 21 20 20 20 19 19 18 18 18 18 18 18 18 18 18 18 18 17 17 17 16 16 16 16 16 17 17 17 16 17 17 18 19 19 19 18 17 17 16 17 17 17
24 23 21 20 20 19 19 19 18 18 17 18 18 18 18 18 18 18 17 17 17 17 16 16 16 16 16 17 16 17 17 18 18 19 19 19 18 18 17 17 16 17 17
24 23 22 21 20 19 19 19 18 18 17 18 18 18 18 17 18 18 18 17 17 17 16 16 16 16 16 16 16 17 17 18 19 20 19 19 18 18 17 17 17 17 17
24 22 21 21 20 20 19 19 19 18 17 18 17 18 18 18 18 18 18 17 17 17 17 16 17 17 17 17 17 17 18 18 18 19 19 19 18 17 17 17 17 17 17
24 22 20 20 20 20 20 19 19 18 18 18 18 18 18 18 18 18 17 17 17 17 17 17 17 17 17 17 17 18 18 18 19 19 18 18 18 17 16 17 16 17 16
25 22 21 20 19 19 19 20 19 19 18 18 18 18 18 18 18 18 17 17 17 17 17 17 17 17 17 18 18 18 18 18 19 19 18 18 18 16 16 16 16 16 16
25 24 22 21 20 19 19 19 19 19 18 18 18 18 18 18 18 17 17 17 17 17 17 17 17 18 18 18 18 18 18 18 18 18 18 18 17 16 16 15 15 15 15
25 24 24 22 21 20 19 19 18 18 18 18 18 19 19 19 18 18 18 18 17 17 17 17 17 18 17 17 17 18 18 18 18 17 17 17 17 16 15 15 14 14 14
25 25 24 24 22 22 20 20 18 18 18 19 19 19 19 19 19 18 18 18 17 17 18 18 18 17 17 17 17 17 17 17 17 17 16 16 15 14 14 13 13 13 14
26 25 24 24 24 22 21 21 20 20 19 19 20 19 19 19 19 18 18 17 18 18 18 18 17 17 17 17 17 16 16 16 16 16 15 14 13 13 13 12 12 12 12
27 26 25 24 24 23 22 21 21 20 20 21 20 20 20 19 19 19 18 18 18 18 18 17 17 17 17 16 16 16 16 16 16 15 15 14 12 12 12 11 11 11 12
27 27 25 24 24 23 22 22 21 21 21 21 21 20 20 20 19 19 18 18 17 17 17 17 17 16 16 16 15 15 15 15 15 14 14 13 13 12 12 11 11 11 11
27 27 26 24 24 22 22 22 22 21 21 22 21 21 20 20 20 18 18 17 17 17 16 16 16 15 15 15 15 15 15 14 14 14 13 13 12 12 12 11 11 10 10
27 27 26 25 24 23 22 22 22 21 21 22 21 20 20 20 20 18 18 16 16 16 16 15 15 15 14 14 14 14 14 14 14 14 13 12 11 11 11 11 10 9 9
27 27 27 26 24 23 22 22 22 22 22 22 21 20 19 18 18 18 17 16 16 15 15 14 14 14 13 13 13 14 14 13 13 13 13 12 12 11 10 10 10 9 9
27 27 27 26 25 24 22 22 22 22 22 22 21 19 19 18 18 17 16 15 15 15 14 14 13 13 12 12 13 13 13 13 13 13 13 12 12 11 10 10 9 9 9
26 26 27 26 25 24 22 21 21 21 20 20 19 18 18 18 17 16 15 15 15 14 14 13 13 12 12 12 13 13 13 13 13 12 12 12 12 11 10 10 9 9 8
25 25 26 26 25 24 23 22 20 19 18 18 17 17 16 16 16 16 15 14 14 14 13 13 12 12 11 11 11 11 9 11 12 12 12 12 12 11 10 10 9 8 8
24 24 25 25 25 23 23 22 18 17 15 15 15 15 15 15 15 15 15 14 14 13 13 12 12 12 11 10 10 10 8 8 8 12 12 11 11 11 10 10 9 8 8
24 24 24 24 25 24 22 20 18 15 13 13 13 13 13 14 14 14 14 13 13 13 12 11 11 11 11 10 9 10 9 9 6 5 10 11 10 10 9 9 8 8 8
24 23 24 24 24 23 19 19 16 13 14 13 12 12 12 13 14 13 13 12 12 12 11 11 10 10 10 9 9 9 9 9 9 6 4 7 8 8 8 8 8 7 7
23 23 23 23 23 21 18 17 15 14 13 11 10 10 11 12 12 12 12 11 11 11 11 10 9 9 9 8 8 8 8 7 7 6 4 4 5 6 6 6 6 7 7
Height
764 767 771 775 778 781 784 786 788 790 792 794 796 798 800 802 803 804 805 805 806 807 808 809 809 808 809 810 812 814 815 816 817 817 817 817 817 818 817 818 817 818 818
760 766 771 775 779 782 785 787 789 791 792 794 796 798 800 802 804 806 807 807 807 808 808 809 810 810 810 812 814 815 816 816 817 817 817 817 817 818 818 818 818 818 818
761 767 772 775 779 783 786 788 789 791 792 794 797 798 800 802 805 807 807 808 808 808 809 810 811 812 812 813 814 816 816 816 816 817 817 817 818 818 818 818 818 818 819
763 767 771 776 779 782 786 789 790 792 793 795 797 799 802 804 805 806 808 810 810 810 810 811 812 812 813 813 815 816 816 816 816 816 817 818 819 818 818 818 818 819 818
763 767 771 775 780 782 785 789 791 793 795 796 798 800 803 804 806 807 809 810 811 811 812 813 813 814 813 814 815 816 816 816 816 816 817 818 818 818 818 817 818 818 817
763 767 771 776 780 784 786 788 791 793 796 798 799 801 803 805 807 808 810 810 811 812 813 815 815 814 814 815 816 816 816 816 816 816 817 817 818 818 817 818 818 817 817
763 767 771 775 779 783 786 788 790 793 795 797 800 801 802 804 806 808 809 811 812 813 814 814 815 815 815 816 816 816 816 815 815 816 817 817 817 817 817 818 816 816 815
762 767 771 775 778 782 785 788 790 793 794 797 799 801 802 804 805 806 809 811 812 813 814 814 814 815 816 816 816 815 815 815 815 815 816 815 817 816 816 817 816 816 815
764 765 770 774 778 781 784 787 789 792 794 796 799 801 802 804 804 805 808 810 812 813 814 814 815 815 816 816 816 815 815 815 815 816 815 814 815 815 815 816 815 815 814
764 766 769 773 776 780 783 785 787 790 794 796 797 801 802 804 805 806 808 809 811 813 813 814 815 815 815 815 815 815 815 815 815 815 814 814 814 815 816 815 814 814 815
764 766 767 771 776 780 782 785 787 788 791 795 796 799 801 803 805 806 808 809 810 812 812 814 814 815 815 814 815 815 815 815 816 814 814 814 814 815 815 815 815 814 815
762 764 767 768 773 777 781 783 787 789 790 792 796 797 799 801 804 805 807 808 810 812 811 813 814 814 815 814 814 815 815 815 816 813 814 814 813 815 815 815 815 815 815
759 762 765 767 770 774 778 781 785 787 790 792 793 796 797 801 803 805 806 807 809 811 812 813 814 813 815 813 814 815 814 814 815 813 813 814 815 815 815 815 815 815 816
753 757 762 765 768 770 774 779 782 785 787 789 791 794 797 799 802 803 806 806 809 810 811 813 814 813 814 814 814 814 814 814 815 812 813 813 814 815 817 815 816 816 815
749 752 755 761 765 768 771 775 779 781 784 787 790 792 795 798 801 803 805 806 809 810 810 811 812 813 813 813 813 813 814 814 814 812 812 813 814 814 816 815 816 816 815
746 748 751 756 761 764 768 771 775 779 782 784 787 790 794 797 799 801 802 806 809 809 809 810 811 811 812 812 812 812 813 813 814 813 812 813 813 815 815 815 815 816 815
743 745 747 751 756 760 764 767 771 775 778 780 784 788 792 795 797 798 801 805 808 808 809 809 810 811 811 811 811 811 811 812 813 813 812 813 813 815 815 815 815 815 814
738 740 742 746 751 756 758 762 766 769 773 775 780 785 790 791 793 797 800 804 807 808 808 809 809 810 810 810 810 810 810 812 812 812 812 813 813 814 814 814 814 814 812
733 734 736 739 743 748 753 758 760 765 768 770 775 781 786 787 791 795 798 801 804 807 808 809 809 809 809 809 809 809 809 810 811 811 811 812 813 814 814 814 813 812 811
727 728 731 734 738 743 747 752 757 761 764 768 771 775 779 784 788 792 796 799 802 805 807 808 809 809 809 808 807 808 808 809 810 810 811 811 811 812 813 813 812 811 810
720 722 724 726 731 736 742 746 750 753 759 765 768 772 776 780 784 790 794 796 800 803 806 807 808 808 808 807 806 807 808 808 809 809 810 810 810 811 811 811 810 809 808
715 717 720 721 723 729 736 741 743 747 755 758 764 769 775 779 782 787 790 794 797 800 803 806 807 808 808 808 809 808 811 810 809 809 809 809 810 810 809 809 808 807 806
708 712 714 716 719 723 729 733 739 745 750 756 762 766 773 779 783 783 788 792 796 798 801 804 805 807 808 810 809 809 812 814 810 808 808 809 809 809 808 807 806 804 803
702 706 709 712 714 717 720 725 730 735 743 748 756 763 771 778 781 781 786 791 794 797 800 802 805 807 808 808 810 810 811 812 814 814 808 807 808 808 806 805 803 801 800
698 700 701 707 710 712 714 720 728 735 740 745 754 761 770 775 779 781 783 788 792 795 799 801 804 806 807 808 809 810 810 811 811 812 811 806 806 805 804 803 801 799 797
694 694 697 698 703 708 711 718 725 730 735 742 752 758 767 771 776 779 782 788 791 793 797 800 803 805 807 808 809 810 810 811 810 811 810 805 804 800 801 799 797 796 794
Wind_Speed
20 26 20 20 17 16 14 13 11 10 9 9 8 10 12 11 11 11 12 11 11 10 9 10 12 13 9 11 12 10 9 7 7 8 8 9 11 10 8 7 4 6 3
25 27 21 21 19 16 14 13 11 9 7 8 9 10 11 12 10 11 11 11 11 11 11 10 11 13 14 14 13 10 8 6 7 9 7 4 5 10 7 6 3 4 7
25 25 22 21 19 17 14 12 10 8 8 10 10 9 12 13 11 10 11 11 12 12 12 11 11 11 11 10 8 7 6 6 7 7 8 8 2 6 7 6 6 5 5
27 24 22 21 19 17 14 11 9 9 12 12 12 13 12 12 11 12 11 11 12 13 13 12 11 9 8 6 6 6 7 8 8 9 12 5 6 6 8 5 4 5 5
25 23 22 23 18 16 14 12 10 9 11 14 14 12 11 10 11 10 9 9 10 11 11 11 10 10 9 8 6 5 6 5 5 8 8 6 5 6 9 6 5 4 4
23 25 22 21 17 15 13 12 10 10 12 15 13 13 11 10 7 6 6 5 7 8 9 8 8 8 7 7 5 4 3 4 5 6 4 5 3 7 9 7 6 7 6
23 24 22 21 19 15 13 12 11 11 13 14 11 11 10 7 5 4 5 3 5 6 7 7 7 7 7 7 5 5 5 6 7 7 5 6 6 9 9 8 9 8 7
21 21 22 20 19 16 13 12 11 12 13 14 12 10 8 6 3 4 8 6 5 5 5 6 6 6 6 4 4 5 6 6 4 7 5 3 5 7 9 8 9 10 10
21 22 22 22 19 17 14 13 11 11 13 14 14 10 7 5 6 11 11 8 6 4 4 5 5 4 3 4 5 6 7 8 9 9 5 4 8 9 8 7 9 9 10
20 22 22 21 21 19 16 15 14 12 12 14 14 11 8 5 7 9 10 8 6 4 4 4 4 4 4 6 7 8 7 7 9 6 5 6 8 9 8 7 8 9 10
18 19 24 23 22 19 17 17 15 16 13 13 15 13 9 7 7 8 10 7 6 5 4 3 4 5 5 6 8 10 8 7 5 6 6 7 7 8 7 9 10 12 11
19 19 21 25 23 21 19 17 17 17 17 14 12 13 11 10 10 12 9 7 6 5 3 3 5 7 5 5 6 7 5 5 5 5 4 7 6 7 10 11 12 12 11
20 19 19 22 24 24 22 19 19 17 17 15 13 10 10 15 13 11 7 9 6 6 6 5 6 2 3 5 5 4 7 6 5 5 4 5 9 8 9 10 10 11 11
24 23 22 21 22 30 24 20 21 21 20 19 20 14 14 13 12 13 9 10 9 6 6 5 2 3 3 3 5 6 5 5 3 4 3 3 9 9 8 9 10 10 10
19 25 24 23 23 24 23 21 20 21 25 18 20 16 14 15 13 13 15 13 9 7 7 4 2 1 2 5 4 5 5 4 2 4 2 1 4 6 8 9 9 9 10
14 21 25 25 25 24 23 23 22 21 19 22 17 16 15 15 14 16 15 11 9 8 6 4 2 1 2 4 5 4 4 3 1 1 3 3 1 1 3 5 8 9 10
20 18 24 26 27 27 27 23 21 21 21 20 20 18 17 16 16 15 13 13 10 8 5 4 1 1 2 3 3 4 4 2 1 2 1 4 4 5 6 7 8 9 10
21 26 27 30 29 28 28 26 25 23 21 23 21 19 18 18 19 17 15 14 10 8 6 3 3 3 3 4 4 3 4 3 3 2 4 3 2 3 6 9 12 11 11
29 24 23 30 34 32 30 29 27 25 23 25 22 23 20 19 18 17 18 17 12 8 6 4 4 3 3 5 4 4 5 6 5 4 3 2 5 6 6 7 11 11 12
32 26 28 23 29 28 33 30 23 25 24 23 23 28 29 26 22 20 20 16 12 10 8 6 5 5 6 7 4 4 3 2 5 4 4 2 6 8 8 8 8 11 13
23 29 25 29 32 31 26 30 27 28 26 24 27 29 30 27 24 22 20 17 13 12 10 6 5 4 7 10 4 4 5 3 5 5 6 5 4 6 4 6 10 16 15
27 25 30 30 34 36 32 28 27 32 29 32 29 26 25 26 27 25 22 19 16 15 12 8 6 5 6 10 5 2 3 1 2 4 5 3 5 6 6 8 16 18 14
29 32 28 27 25 36 31 28 30 30 29 26 26 26 26 27 28 26 21 20 17 15 13 9 7 7 4 5 7 4 2 1 5 2 2 1 6 8 10 16 15 15 18
27 32 35 27 31 31 32 38 41 30 25 23 31 30 27 30 27 26 22 21 18 15 13 10 7 7 5 4 3 4 2 1 1 4 2 8 13 11 16 14 21 22 21
26 22 35 35 28 31 36 41 37 27 22 29 29 30 31 29 27 25 23 21 18 16 13 10 8 6 6 5 2 1 1 3 7 5 4 4 20 21 20 20 18 19 24
21 30 20 34 27 31 32 37 34 32 31 34 34 32 31 31 27 23 22 21 18 16 13 10 8 6 4 3 2 0 1 1 3 3 2 6 13 17 18 23 21 21 22
Wind_Direction
144 150 146 143 142 137 132 127 124 122 118 119 120 123 122 115 106 91 76 67 62 63 75 69 64 69 77 96 98 85 66 49 26 18 18 37 35 37 45 36 61 29 59
153 150 147 144 144 139 134 131 124 118 118 123 130 135 134 125 114 99 82 75 70 69 78 79 71 70 74 76 77 74 61 36 7 15 41 41 47 16 42 32 33 26 17
144 152 149 147 146 141 137 134 126 117 117 121 127 148 141 128 114 96 88 75 71 74 79 81 76 73 72 70 64 53 37 17 17 62 47 25 87 27 29 40 15 16 4
144 152 155 154 148 147 140 136 125 115 121 121 125 115 117 119 114 99 94 80 73 74 77 78 74 73 74 66 58 57 43 37 58 66 53 41 48 30 13 5 14 355 345
145 151 158 157 154 152 145 141 128 123 132 132 130 121 115 120 119 106 100 90 71 76 77 77 75 73 73 71 71 66 41 35 55 41 44 9 72 26 9 17 352 322 315
147 161 156 157 157 155 150 145 138 134 137 138 132 131 126 117 115 122 120 89 74 76 76 69 65 65 65 67 63 63 37 34 38 31 27 28 24 344 5 359 342 344 337
141 150 157 161 162 161 156 150 141 139 145 147 135 131 127 125 151 173 162 158 92 83 75 66 60 60 71 69 63 54 50 41 51 36 13 346 339 338 356 349 340 333 325
144 149 158 165 167 165 161 157 148 147 147 157 154 145 147 139 137 182 175 159 119 93 79 74 81 76 68 59 35 22 11 11 8 359 12 344 327 350 7 353 8 3 359
145 150 161 167 172 171 168 163 157 156 164 163 168 164 167 137 91 130 151 147 134 109 95 88 84 78 56 28 20 22 30 45 30 22 10 29 359 4 10 356 4 15 26
159 155 162 170 173 175 175 171 162 161 169 174 175 185 179 152 130 137 149 153 150 133 119 99 66 45 45 33 28 22 26 26 19 40 10 8 354 13 5 11 49 44 38
164 171 166 175 176 179 182 176 170 164 160 172 184 193 192 178 159 157 160 167 157 143 121 90 71 60 56 38 31 28 18 28 16 350 328 336 5 20 56 60 55 59 44
175 182 179 177 176 180 183 185 181 175 175 172 181 186 178 176 180 189 187 171 157 143 122 94 80 75 40 33 14 16 337 344 5 324 331 339 30 64 69 64 61 48 45
184 187 191 181 178 184 174 185 181 185 193 191 186 179 168 190 185 182 189 167 144 138 105 88 93 71 1 13 354 5 349 355 359 325 348 5 72 86 68 68 54 47 48
185 188 188 194 186 184 183 197 188 190 192 196 192 177 186 188 202 185 192 162 141 138 148 134 99 38 28 350 351 347 344 355 355 330 23 70 90 77 73 62 51 46 43
193 185 186 191 193 186 184 197 197 199 194 193 182 186 188 182 181 182 166 154 167 153 146 133 153 137 347 331 345 346 335 348 26 347 346 36 125 85 67 57 45 35 30
229 189 187 193 197 194 192 201 198 201 204 196 199 192 191 190 186 186 158 165 152 174 167 170 187 10 351 333 351 353 335 2 5 338 53 356 280 331 7 14 30 21 16
216 207 195 192 196 199 200 201 205 204 207 200 199 194 187 190 191 165 167 158 171 165 163 150 105 27 10 345 354 335 316 278 190 179 65 50 23 6 354 348 349 347 349
223 218 203 196 195 196 197 200 198 199 204 203 200 196 191 197 200 186 182 173 175 168 170 159 136 104 28 348 335 355 324 292 214 193 177 148 115 28 355 340 335 354 350
245 226 210 197 192 196 203 201 202 204 205 198 196 188 193 183 195 193 183 167 175 161 153 133 106 106 38 359 358 331 294 271 214 199 185 230 300 292 305 307 326 351 344
239 237 219 204 191 194 203 202 201 201 205 206 197 184 187 192 196 185 170 166 171 159 142 133 105 69 34 359 8 318 294 155 202 208 218 235 284 284 319 329 331 330 325
248 241 234 202 201 200 191 188 196 185 186 184 178 181 186 192 183 173 165 166 156 151 143 143 121 91 38 23 19 345 221 209 213 228 244 253 261 315 311 312 309 321 326
239 248 243 210 197 198 205 193 180 174 169 174 178 181 190 185 172 170 172 166 168 156 147 144 137 104 53 35 36 325 360 228 258 229 230 243 293 289 279 296 312 322 318
220 234 245 230 209 196 197 184 165 164 162 160 175 183 183 180 172 171 171 168 161 156 146 134 123 125 116 57 53 77 28 318 327 16 277 186 323 303 292 319 312 310 305
228 222 233 239 217 201 191 180 177 170 162 178 180 180 176 176 170 166 167 165 162 157 147 135 128 114 125 103 116 39 72 83 111 328 335 311 320 328 322 314 314 308 304
259 247 221 230 223 196 180 185 178 167 169 175 174 169 172 169 167 165 164 163 159 155 148 143 129 116 108 109 96 63 9 247 253 219 282 297 309 305 305 311 307 303 300
258 245 249 212 204 183 174 185 179 169 166 161 165 159 162 161 161 163 160 162 162 156 152 147 143 133 127 115 122 83 289 284 324 316 303 311 299 311 308 299 306 307 307